{"data":{"norad_id":56726,"intl_designator":"2023-068S","name":"IRIDIUM 181","alt_names":[],"object_type":"PAYLOAD","status":"ACTIVE","operator":null,"country":"US","launch_date":"2023-05-20","launch_site_code":"AFWTR","launch_vehicle":null,"mission":null,"orbit_class":"UNKNOWN","rcs_meters":null,"size_class":null,"mass_kg":null,"dimensions":null,"purposes":["comms"],"wikipedia_slug":null,"has_3d_model":false,"image_url":null,"decayed_at":null,"tle_current":{"epoch":"2026-09-19T21:06:49.079808Z","epoch_age_seconds":69162,"freshness":"FRESH","line1":"1 56726U 23068S   26262.87973472  .00000060  00000+0  11698-4 0  9994","line2":"2 56726  86.4547  17.1998 0002193 100.3127 259.8322 14.43309182176095","mean_motion":14.43309182,"eccentricity":0.0002193,"inclination_deg":86.4547,"raan_deg":17.1998,"arg_perigee_deg":100.3127,"mean_anomaly_deg":259.8322,"bstar":1.1698e-5,"rev_number":17609,"period_min":99.770722583818,"perigee_km":746.02314974121,"apogee_km":749.14849177039,"semimajor_km":7125.7228207558,"source":"CELESTRAK","updated_at":"2026-09-20T09:00:36.357182Z"}}}